Regional Weather Roundup
Issued by NWS

Home | Current Version | Previous Version | Text Only | Print | Product List | Glossary Off
Versions: 1 2 3 4 5 6 7 8 9 10 11 12 13 14 15 16 17 18 19 20 21 22 23 24 25 26 27 28 29 30 31 32 33 34 35 36 37 38 39 40 41 42 43 44 45 46 47 48 49 50

000
ASUS43 KTOP 191959
RWRKS

WEATHER ROUNDUP FOR KANSAS
NATIONAL WEATHER SERVICE GOODLAND KS
300 PM CDT TUE AUG 19 2014

NOTE:  "FAIR" INDICATES FEW OR NO CLOUDS BELOW 12,000 FEET WITH NO
SIGNIFICANT WEATHER AND/OR OBSTRUCTIONS TO VISIBILITY.

KSZ001>006-013>018-027>032-041>047-192100-
NORTHWEST KANSAS

CITY           SKY/WX    TMP DP  RH WIND       PRES   REMARKS
GOODLAND       MOSUNNY   94  54  25 SE10      29.85F
HAYS           PTSUNNY   91  63  38 SE16      29.82F
HILL CITY      PTSUNNY   90  65  43 SE10      29.81F
RUSSELL        PTSUNNY   92  60  34 S14G23    29.81F
$$

KSZ061>065-074>080-084>089-192100-
SOUTHWEST KANSAS

CITY           SKY/WX    TMP DP  RH WIND       PRES   REMARKS
DODGE CITY     MOSUNNY   92  61  35 S16       29.85F
ELKHART          N/A     95  53  24 SE15        N/A
GARDEN CITY    MOSUNNY   94  59  31 S13       29.84F
GREAT BEND     MOSUNNY   95  63  34 S15       29.82F HX  96
LIBERAL        MOSUNNY   97  55  24 S15G23    29.86F HX  95
$$

KSZ066>073-081>083-090>101-192100-
SOUTHEAST KANSAS

CITY           SKY/WX    TMP DP  RH WIND       PRES   REMARKS
CHANUTE        SUNNY     95  63  34 VRB5      29.84F HX  96
COFFEYVILLE    SUNNY     95  67  39 SW12      29.84F HX  99
HUTCHINSON     MOSUNNY   96  64  34 S13       29.83F HX  98
MEDICINE LODGE   N/A     94  66  39 S17G23    29.83S HX  97
NEWTON         MOSUNNY   93  61  33 SW13      29.88S
PARSONS        SUNNY     97  68  38 CALM      29.85F HX 102
WICHITA INTL   MOSUNNY   96  64  34 S15       29.83F HX  98
WICHITA JABRA  MOSUNNY   93  63  36 S13G20    29.84F
WINFIELD       SUNNY     94  67  41 S13       29.85F HX  97
$$

KSZ007>012-019>026-033>040-048>060-102>105-192100-
NORTHEAST KANSAS

CITY           SKY/WX    TMP DP  RH WIND       PRES   REMARKS
CONCORDIA      SUNNY     89  71  55 S13       29.82F HX  95
EMPORIA        SUNNY     94  62  34 S8        29.83F
LAWRENCE       SUNNY     95  70  44 CALM      29.81F HX 101
MANHATTAN      SUNNY     94  69  44 VRB7      29.81F HX  99
OLATHE IND     MOSUNNY   92  70  48 NW5       29.83F HX  97
OLATHE EXE     SUNNY     90  71  53 SW6       29.83S HX  96
SALINA         SUNNY     94  61  33 S8        29.81F
TOPEKA BILLARD SUNNY     94  71  47 E8        29.81F HX 101
TOPEKA FORBES  SUNNY     94  65  38 VRB5      29.82F HX  96
$$


USA.gov is the U.S. government's official web portal to all federal, state and local government web resources and services.